OBJECT C, 44881

Orbit data source: Space-Track

You're viewing an Uncataloged Satellite

Recently launched and/or uncataloged satellites may have evolving metadata. Metadata may include but not limited to: Owner, Maufacturer, Bus, Motor, and Mission.

OBJECT C, 44881 is a satellite in SSO that was launched on Fri, 20 Dec 2019 UTC via a CHANG ZHENG 4B launch vehicle from the Taiyaun Space Center, China (TSC). Unknown objects in Earth's orbit typically refer to objects detected orbiting the Earth but have not yet been identified or cataloged. These objects could be anything from previously untracked satellites, spent rocket stages, debris from satellite collisions, or even natural meteoroids temporarily captured by Earth's gravity.

Loading next visibility...
Identifier
44881, 2019-093C
Orbit
SSO
Country
Flag of TBDTBD
Related business
Flag of CNSun Yat-sen University (CN)
Manufacturer
DFH Shenzhen
Mission
Operational Commercial Sci/Com
Bus & Motor
TIANQIN, Unknown motor
Mass
35 kg wet, 35 kg dry
Launch date (UTC)
2019-12-20 (6 years ago)
Launch vehicle
CHANG ZHENG 4B
Launch site
Taiyaun Space Center, China (TSC)
Object type
Unknown
Shape & HBR
Box, 0.1 m
Radar Cross Section
0.105 m², Medium (>0.1 m² and < 1m²)

Expand to show TLE details & history
Last TLE update: 7 hours ago

TLE from 7 hours ago
0 OBJECT C
1 44881U 19093C   26104.83585784  .00000937  00000-0  11210-3 0  9995
2 44881  97.7562 178.6086 0012218 299.2854  60.7140 14.86419867342003
Epoch: 2026-04-14T20:03Z
TLE epoch observation values (Epoch: 2026-04-14T20:03:38.117Z)
Latitude
-0.00004°
Longitude
34.69339°
Altitude
607.998 km
Speed
7.558 km/s
True Right ascension
11h 54m 26s
True Declination
0° 00' 00"
Sunlit
Object was in full shadow at epoch
Visualization orbit readout
Latitude
Unknown
Longitude
Unknown
Altitude
Unknown
Speed
Unknown
Apparent Right ascension
Unknown
Apparent Declination
Unknown
Sunlit
N/A
Visualization observer readout
Local Sidereal Time
10:01:36
Azimuth
Unknown
Elevation
Unknown
Doppler factor
Unknown
Orbital elements
Apogee altitude
614.692 km
Perigee altitude
597.625 km
Semi-major axis
6,984.296 km
Eccentricity
0.00122
Inclination
97.7562°
RAAN
178.6086°
Arg. of periapsis
299.2854°
True anomaly
60.8362°
Mean anomaly
60.714°
Eccentric anomaly
60.77509°
Mean motion
3.71843 °/min
Orbital period
96.82 mins
BSTAR
0.0001121
Loading maneuver chart data...
Computing Atmospheric mass density...
Loading historical data...
Loading historical data...
Loading historical data...
Loading historical data...
Loading historical data...
Loading historical data...
Loading historical data...

Documentation

Showing up to 5 results
|